Regional Weather Roundup
Issued by NWS Glasgow, MT

Home | Current Version | Previous Version | Text Only | Print | Product List | Glossary On
Versions: 1 2 3 4 5 6 7 8 9 10 11 12 13 14 15 16 17 18 19 20 21 22 23 24 25 26 27
000
ASUS45 KGGW 292015
RWRGGW
HOURLY REGIONAL WEATHER ROUNDUP FOR NORTHEAST MONTANA
NATIONAL WEATHER SERVICE GLASGOW MONTANA
200 PM MDT THU SEP 29 2016

NOTE: "FAIR" INDICATES FEW OR NO CLOUDS BELOW 12,000 FEET WITH NO
SIGNIFICANT WEATHER AND/OR OBSTRUCTIONS TO VISISBILITY.

NORTHEAST MONTANA


CITY           SKY/WX    TMP DP  RH WIND       PRES   REMARKS
GLASGOW        SUNNY     78  46  32 SE17      30.05F
PLENTYWOOD       N/A     77  38  24 SE18        N/A
WOLF POINT     SUNNY     83  46  27 S9G18     30.08F
JORDAN           N/A     77  48  35 S9        30.06F
WINNETT          N/A     81  49  32 S7G15       N/A
SIDNEY         SUNNY     79  49  34 SE15      30.13F
GLENDIVE       SUNNY     81  49  32 SE14      30.11F
MALTA            N/A     82  52  35 SE5         N/A
SCOBEY           N/A     80  43  26 SE16G22   30.09F
OPHEIM           N/A     73  41  31 SE9       29.87F

FORT PECK REPORTS


CITY           SKY/WX    TMP DP  RH WIND       PRES   REMARKS
FORT PECK        N/A     72  51  47 SE13G21     N/A
THE PINES        N/A     77  45  32 SE1G12      N/A

SOUTHEAST MONTANA


CITY           SKY/WX    TMP DP  RH WIND       PRES   REMARKS
BILLINGS       MOSUNNY   71  50  47 E6        30.10F
MILES CITY     SUNNY     80  47  31 SE13      30.07F
BAKER          SUNNY     75  45  34 SE28G35   30.16F
LIVINGSTON     PTSUNNY   75  42  30 SW17      30.13F

CENTRAL MONTANA


CITY           SKY/WX    TMP DP  RH WIND       PRES   REMARKS
HAVRE          SUNNY     72  53  51 NE5       30.03F
LEWISTOWN      SUNNY     77  44  30 SW14      30.08F
GREAT FALLS    SUNNY     73  50  44 E7        30.05F
CUT BANK       SUNNY     67  48  50 SE9G17    30.08F
HELENA         SUNNY     71  49  45 VRB3      30.07F
BUTTE          SUNNY     74  37  26 VRB6      30.15F
BOZEMAN        CLOUDY    72  50  45 CALM      30.12F

WESTERN MONTANA


CITY           SKY/WX    TMP DP  RH WIND       PRES   REMARKS
MISSOULA       PTSUNNY   74  44  34 SW3       30.03F
KALISPELL      NOT AVBL

NORTH DAKOTA


CITY           SKY/WX    TMP DP  RH WIND       PRES   REMARKS
WILLISTON      SUNNY     75  46  35 SE15      30.17F
DICKINSON      NOT AVBL
MINOT          SUNNY     71  45  39 SE16G28   30.26F
BISMARCK       SUNNY     70  45  40 SE20G26   30.30F

SOUTHERN SASKATCHEWAN


CITY           SKY/WX    TMP DP  RH WIND       PRES   REMARKS
REGINA         MOSUNNY   77  43  29 SE24G31   30.11F
MOOSE JAW      MOSUNNY   79  50  36 SE10G17   30.09F
ESTEVAN        MOSUNNY   75  46  35 SE15G23   30.20F
SWIFT CURRENT  SUNNY     72  54  53 E5        30.07F





USA.gov is the U.S. government's official web portal to all federal, state and local government web resources and services.